,,PA_Meas_PMT16A,,PR_Meas_QMR101_102,,RH_Meas_QMH101,,SR_Meas_QMS101,,TA_Meas_QMH101,,GenWind,,GenWind,
time,status,PA,status,PR,status,RH,status,SR,status,TA,status,DirAvg,status,SpdAvg,
2014-08-30, 00:00:04,VALID,917.823,VALID,0,VALID,89.072,VALID,0,VALID,20.7365,VALID,127,VALID,1.14648,
2014-08-30, 00:01:04,VALID,917.802,VALID,0,VALID,88.8357,VALID,0,VALID,20.7365,VALID,126,VALID,1.47148,
2014-08-30, 00:02:04,VALID,917.847,VALID,0,VALID,88.7366,VALID,0,VALID,20.756,VALID,108,VALID,0.528516,
2014-08-30, 00:03:04,VALID,917.796,VALID,0,VALID,88.7747,VALID,0,VALID,20.7365,VALID,138,VALID,0.553125,
2014-08-30, 00:04:04,VALID,917.839,VALID,0,VALID,88.8509,VALID,0,VALID,20.7365,VALID,140,VALID,1.56367,
2014-08-30, 00:05:04,VALID,917.782,VALID,0,VALID,88.7213,VALID,0,VALID,20.7771,VALID,150,VALID,0.272656,
2014-08-30, 00:06:04,VALID,917.821,VALID,0,VALID,88.4316,VALID,0,VALID,20.8145,VALID,147,VALID,0.617969,
2014-08-30, 00:07:04,VALID,917.815,VALID,0,VALID,88.3173,VALID,0,VALID,20.834,VALID,130,VALID,0.0414063,
2014-08-30, 00:08:04,VALID,917.822,VALID,0,VALID,88.2639,VALID,0,VALID,20.834,VALID,115,VALID,0.0984375,
2014-08-30, 00:09:04,VALID,917.813,VALID,0,VALID,88.2868,VALID,0,VALID,20.8145,VALID,121,VALID,0.151172,
2014-08-30, 00:10:04,VALID,917.834,VALID,0,VALID,88.3401,VALID,0,VALID,20.8145,VALID,128,VALID,0.938281,
2014-08-30, 00:11:04,VALID,917.813,VALID,0,VALID,88.1953,VALID,0,VALID,20.8535,VALID,114,VALID,0.538672,
2014-08-30, 00:12:04,VALID,917.823,VALID,0,VALID,88.0962,VALID,0.107441,VALID,20.8535,VALID,132,VALID,0.689453,
2014-08-30, 00:13:04,VALID,917.808,VALID,0,VALID,88.0657,VALID,0,VALID,20.873,VALID,131,VALID,1.85391,
2014-08-30, 00:14:04,VALID,917.806,VALID,0,VALID,87.9056,VALID,0,VALID,20.912,VALID,126,VALID,1.18086,
2014-08-30, 00:15:04,VALID,917.786,VALID,0,VALID,87.593,VALID,0,VALID,20.9495,VALID,137,VALID,1.00469,
2014-08-30, 00:16:04,VALID,917.793,VALID,0,VALID,87.5016,VALID,0,VALID,20.9901,VALID,131,VALID,0.108203,
2014-08-30, 00:17:04,VALID,917.786,VALID,0,VALID,87.4482,VALID,0,VALID,20.9901,VALID,140,VALID,0,
2014-08-30, 00:18:04,VALID,917.817,VALID,0,VALID,87.5626,VALID,0,VALID,20.9706,VALID,121,VALID,0.557031,
2014-08-30, 00:19:04,VALID,917.792,VALID,0,VALID,87.5854,VALID,0.107441,VALID,20.9706,VALID,122,VALID,0.948438,
2014-08-30, 00:20:04,VALID,917.782,VALID,0,VALID,87.7836,VALID,0,VALID,20.9316,VALID,124,VALID,0.46875,
2014-08-30, 00:21:04,VALID,917.734,VALID,0,VALID,87.9666,VALID,0,VALID,20.873,VALID,124,VALID,0.539063,
2014-08-30, 00:22:04,VALID,917.743,VALID,0,VALID,88.2944,VALID,0,VALID,20.834,VALID,117,VALID,0.729688,
2014-08-30, 00:23:04,VALID,917.747,VALID,0,VALID,88.5307,VALID,0,VALID,20.795,VALID,122,VALID,0.980859,
2014-08-30, 00:24:04,VALID,917.701,VALID,0,VALID,88.6756,VALID,0,VALID,20.7755,VALID,127,VALID,0.502344,
2014-08-30, 00:25:04,VALID,917.717,VALID,0,VALID,88.7899,VALID,0.107441,VALID,20.756,VALID,118,VALID,0.571875,
2014-08-30, 00:26:04,VALID,917.714,VALID,0,VALID,88.95,VALID,0,VALID,20.7365,VALID,126,VALID,0.519922,
2014-08-30, 00:27:04,VALID,917.714,VALID,0,VALID,89.0567,VALID,0,VALID,20.7365,VALID,133,VALID,0.704297,
2014-08-30, 00:28:04,VALID,917.698,VALID,0,VALID,89.1711,VALID,0,VALID,20.6975,VALID,152,VALID,0.0101562,
2014-08-30, 00:29:04,VALID,917.701,VALID,0,VALID,89.3541,VALID,0,VALID,20.678,VALID,152,VALID,0,
2014-08-30, 00:30:04,VALID,917.705,VALID,0,VALID,89.3922,VALID,0,VALID,20.6585,VALID,148,VALID,0.003125,
2014-08-30, 00:31:04,VALID,917.683,VALID,0,VALID,89.4913,VALID,0,VALID,20.6194,VALID,139,VALID,0,
2014-08-30, 00:32:04,VALID,917.677,VALID,0,VALID,89.7657,VALID,0,VALID,20.5609,VALID,145,VALID,0.687109,
2014-08-30, 00:33:04,VALID,917.664,VALID,0,VALID,89.8801,VALID,0,VALID,20.5804,VALID,156,VALID,0.675,
2014-08-30, 00:34:04,VALID,917.647,VALID,0,VALID,89.7962,VALID,0,VALID,20.5999,VALID,147,VALID,0.98125,
2014-08-30, 00:35:04,VALID,917.628,VALID,0,VALID,89.7047,VALID,0,VALID,20.5999,VALID,138,VALID,0.2875,
2014-08-30, 00:36:04,VALID,917.617,VALID,0,VALID,89.6285,VALID,0,VALID,20.639,VALID,128,VALID,1.58633,
2014-08-30, 00:37:04,VALID,917.613,VALID,0,VALID,89.4455,VALID,0,VALID,20.6795,VALID,134,VALID,1.06641,
2014-08-30, 00:38:04,VALID,917.578,VALID,0,VALID,89.3388,VALID,0,VALID,20.678,VALID,145,VALID,1.29141,
2014-08-30, 00:39:04,VALID,917.557,VALID,0,VALID,89.3541,VALID,0,VALID,20.6975,VALID,164,VALID,0.998828,
2014-08-30, 00:40:04,VALID,917.591,VALID,0,VALID,89.2321,VALID,0,VALID,20.717,VALID,166,VALID,0.00117188,
2014-08-30, 00:41:04,VALID,917.6,VALID,0,VALID,89.0949,VALID,0.107441,VALID,20.756,VALID,142,VALID,0.524219,
2014-08-30, 00:42:04,VALID,917.588,VALID,0,VALID,89.0796,VALID,0,VALID,20.7365,VALID,138,VALID,0.510938,
2014-08-30, 00:43:04,VALID,917.553,VALID,0,VALID,89.2397,VALID,0,VALID,20.6975,VALID,148,VALID,0.0945313,
2014-08-30, 00:44:04,VALID,917.596,VALID,0,VALID,89.4455,VALID,0,VALID,20.639,VALID,133,VALID,0.505859,
2014-08-30, 00:45:04,VALID,917.565,VALID,0,VALID,89.72,VALID,0,VALID,20.5804,VALID,132,VALID,1.17266,
2014-08-30, 00:46:04,VALID,917.552,VALID,0,VALID,89.9563,VALID,0,VALID,20.5609,VALID,141,VALID,0.413281,
2014-08-30, 00:47:04,VALID,917.544,VALID,0,VALID,90.1393,VALID,0,VALID,20.5219,VALID,136,VALID,1.04414,
2014-08-30, 00:48:04,VALID,917.541,VALID,0,VALID,90.307,VALID,0,VALID,20.5024,VALID,138,VALID,0.551172,
2014-08-30, 00:49:04,VALID,917.509,VALID,0,VALID,90.4137,VALID,0,VALID,20.5024,VALID,133,VALID,1.33906,
2014-08-30, 00:50:04,VALID,917.479,VALID,0,VALID,90.4899,VALID,0,VALID,20.4829,VALID,141,VALID,0.300781,
2014-08-30, 00:51:04,VALID,917.492,VALID,0,VALID,90.5281,VALID,0,VALID,20.4829,VALID,131,VALID,1.21992,
2014-08-30, 00:52:04,VALID,917.459,VALID,0,VALID,90.65,VALID,0,VALID,20.4228,VALID,127,VALID,1.03203,
2014-08-30, 00:53:04,VALID,917.438,VALID,0,VALID,90.7796,VALID,0,VALID,20.4244,VALID,139,VALID,1.04453,
2014-08-30, 00:54:04,VALID,917.435,VALID,0,VALID,90.8483,VALID,0,VALID,20.4033,VALID,143,VALID,1.20352,
2014-08-30, 00:55:04,VALID,917.431,VALID,0,VALID,90.8101,VALID,0,VALID,20.4033,VALID,128,VALID,1.38945,
2014-08-30, 00:56:04,VALID,917.425,VALID,0,VALID,90.8406,VALID,0,VALID,20.4244,VALID,138,VALID,1.4668,
2014-08-30, 00:57:05,VALID,917.405,VALID,0,VALID,90.8101,VALID,0.107441,VALID,20.4244,VALID,125,VALID,0.303125,
2014-08-30, 00:58:04,VALID,917.386,VALID,0,VALID,90.833,VALID,0,VALID,20.4049,VALID,106,VALID,0.491797,
2014-08-30, 00:59:05,VALID,917.39,VALID,0,VALID,90.9321,VALID,0,VALID,20.4049,VALID,125,VALID,1.61836,
2014-08-30, 01:00:05,VALID,917.36,VALID,0,VALID,90.9245,VALID,0,VALID,20.3643,VALID,111,VALID,0.689844,
2014-08-30, 01:01:05,VALID,917.323,VALID,0,VALID,91.0388,VALID,0,VALID,20.3464,VALID,124,VALID,0.833594,
2014-08-30, 01:02:05,VALID,917.314,VALID,0,VALID,91.1913,VALID,0.107441,VALID,20.3058,VALID,125,VALID,0.708594,
2014-08-30, 01:03:05,VALID,917.293,VALID,0,VALID,91.2752,VALID,0,VALID,20.2879,VALID,111,VALID,0.116797,
2014-08-30, 01:04:05,VALID,917.28,VALID,0,VALID,91.4505,VALID,0,VALID,20.2489,VALID,116,VALID,1.28086,
2014-08-30, 01:05:05,VALID,917.249,VALID,0,VALID,91.6716,VALID,0,VALID,20.2293,VALID,134,VALID,0.807031,
2014-08-30, 01:06:05,VALID,917.267,VALID,0,VALID,91.7326,VALID,0,VALID,20.2293,VALID,130,VALID,0.530078,
2014-08-30, 01:07:05,VALID,917.212,VALID,0,VALID,91.7859,VALID,0,VALID,20.2293,VALID,125,VALID,0,
2014-08-30, 01:08:05,VALID,917.227,VALID,0,VALID,91.7859,VALID,0,VALID,20.2098,VALID,124,VALID,0.796094,
2014-08-30, 01:09:05,VALID,917.226,VALID,0,VALID,91.8469,VALID,0,VALID,20.2098,VALID,135,VALID,0.496875,
2014-08-30, 01:10:05,VALID,917.206,VALID,0,VALID,91.8774,VALID,0,VALID,20.2098,VALID,121,VALID,0.194531,
2014-08-30, 01:11:05,VALID,917.171,VALID,0,VALID,91.9155,VALID,0,VALID,20.2098,VALID,135,VALID,0.133594,
2014-08-30, 01:12:05,VALID,917.132,VALID,0,VALID,91.9155,VALID,0,VALID,20.2293,VALID,134,VALID,0.234375,
2014-08-30, 01:13:05,VALID,917.106,VALID,0,VALID,91.7631,VALID,0,VALID,20.2293,VALID,107,VALID,0.0226563,
2014-08-30, 01:14:05,VALID,917.053,VALID,0,VALID,91.824,VALID,0,VALID,20.2098,VALID,128,VALID,0.192188,
2014-08-30, 01:15:05,VALID,917.072,VALID,0,VALID,91.8012,VALID,0,VALID,20.2489,VALID,121,VALID,0.688281,
2014-08-30, 01:16:05,VALID,917.04,VALID,0,VALID,91.7021,VALID,0,VALID,20.3074,VALID,134,VALID,0.735937,
2014-08-30, 01:17:05,VALID,917.034,VALID,0,VALID,91.3743,VALID,0,VALID,20.3659,VALID,120,VALID,0.432422,
2014-08-30, 01:18:05,VALID,917.049,VALID,0,VALID,91.1608,VALID,0,VALID,20.3659,VALID,117,VALID,0.757031,
2014-08-30, 01:19:05,VALID,917.008,VALID,0,VALID,91.1456,VALID,0,VALID,20.3464,VALID,129,VALID,1.00977,
2014-08-30, 01:20:05,VALID,917.022,VALID,0,VALID,91.1227,VALID,0,VALID,20.3854,VALID,131,VALID,0.955078,
2014-08-30, 01:21:05,VALID,917.027,VALID,0,VALID,91.0083,VALID,0,VALID,20.4049,VALID,119,VALID,1.75703,
2014-08-30, 01:22:05,VALID,917.038,VALID,0,VALID,91.0388,VALID,0,VALID,20.3854,VALID,121,VALID,1.55039,
2014-08-30, 01:23:05,VALID,917.049,VALID,0,VALID,91.1761,VALID,0,VALID,20.3659,VALID,135,VALID,1.17266,
2014-08-30, 01:24:05,VALID,917.032,VALID,0,VALID,91.3133,VALID,0,VALID,20.3464,VALID,130,VALID,1.51563,
2014-08-30, 01:25:05,VALID,917.076,VALID,0,VALID,91.3743,VALID,0,VALID,20.3464,VALID,129,VALID,1.04336,
2014-08-30, 01:26:05,VALID,917.106,VALID,0,VALID,91.3971,VALID,0,VALID,20.3659,VALID,128,VALID,2.04961,
2014-08-30, 01:27:05,VALID,917.055,VALID,0,VALID,91.3666,VALID,0,VALID,20.3659,VALID,133,VALID,1.92148,
2014-08-30, 01:28:05,VALID,917.101,VALID,0,VALID,91.3743,VALID,0,VALID,20.3659,VALID,132,VALID,1.53477,
2014-08-30, 01:29:05,VALID,917.101,VALID,0,VALID,91.3971,VALID,0,VALID,20.3854,VALID,131,VALID,1.18086,
2014-08-30, 01:30:05,VALID,917.108,VALID,0,VALID,91.3895,VALID,0,VALID,20.3854,VALID,128,VALID,2.01875,
2014-08-30, 01:31:05,VALID,917.104,VALID,0,VALID,91.3666,VALID,0,VALID,20.4049,VALID,150,VALID,1.47734,
2014-08-30, 01:32:05,VALID,917.105,VALID,0,VALID,91.3133,VALID,0,VALID,20.4049,VALID,140,VALID,1.13516,
2014-08-30, 01:33:05,VALID,917.092,VALID,0,VALID,91.298,VALID,0,VALID,20.4259,VALID,131,VALID,1.14805,
2014-08-30, 01:34:05,VALID,917.095,VALID,0,VALID,91.3514,VALID,0,VALID,20.4244,VALID,135,VALID,1.69375,
2014-08-30, 01:35:05,VALID,917.094,VALID,0,VALID,91.2828,VALID,0,VALID,20.4244,VALID,118,VALID,1.36758,
2014-08-30, 01:36:05,VALID,917.06,VALID,0,VALID,91.3057,VALID,0,VALID,20.4244,VALID,120,VALID,1.66875,
2014-08-30, 01:37:05,VALID,917.067,VALID,0,VALID,91.2675,VALID,0,VALID,20.4244,VALID,133,VALID,1.02656,
2014-08-30, 01:38:05,VALID,917.061,VALID,0,VALID,91.2142,VALID,0,VALID,20.4259,VALID,109,VALID,0.0101562,
2014-08-30, 01:39:05,VALID,917.053,VALID,0,VALID,91.298,VALID,0,VALID,20.3674,VALID,107,VALID,1.35195,
2014-08-30, 01:40:05,VALID,917.031,VALID,0,VALID,91.5267,VALID,0,VALID,20.3464,VALID,113,VALID,1.25195,
2014-08-30, 01:41:05,VALID,917.036,VALID,0,VALID,91.5344,VALID,0,VALID,20.3674,VALID,124,VALID,1.36836,
2014-08-30, 01:42:05,VALID,917.041,VALID,0,VALID,91.4124,VALID,0,VALID,20.4064,VALID,91,VALID,0.586719,
2014-08-30, 01:43:05,VALID,917.035,VALID,0,VALID,91.2447,VALID,0,VALID,20.4244,VALID,123,VALID,0.508984,
2014-08-30, 01:44:05,VALID,917.002,VALID,0,VALID,91.1456,VALID,0,VALID,20.4845,VALID,118,VALID,1.38398,
2014-08-30, 01:45:05,VALID,917.054,VALID,0,VALID,91.0312,VALID,0,VALID,20.4634,VALID,122,VALID,0.508594,
2014-08-30, 01:46:05,VALID,917.03,VALID,0,VALID,91.1303,VALID,0,VALID,20.465,VALID,133,VALID,1.19453,
2014-08-30, 01:47:05,VALID,917.038,VALID,0,VALID,91.1532,VALID,0,VALID,20.4454,VALID,97,VALID,0.812109,
2014-08-30, 01:48:05,VALID,917.042,VALID,0,VALID,91.2523,VALID,0,VALID,20.4064,VALID,98,VALID,1.33477,
2014-08-30, 01:49:05,VALID,917.044,VALID,0,VALID,91.237,VALID,0,VALID,20.4454,VALID,127,VALID,0.521484,
2014-08-30, 01:50:05,VALID,917.024,VALID,0,VALID,91.2294,VALID,0,VALID,20.4244,VALID,124,VALID,1.18047,
2014-08-30, 01:51:05,VALID,916.999,VALID,0,VALID,91.2066,VALID,0,VALID,20.4454,VALID,123,VALID,0.725,
2014-08-30, 01:52:05,VALID,916.979,VALID,0,VALID,91.0007,VALID,0,VALID,20.4829,VALID,104,VALID,0,
2014-08-30, 01:53:05,VALID,916.988,VALID,0,VALID,90.9092,VALID,0,VALID,20.504,VALID,127,VALID,0,
2014-08-30, 01:54:05,VALID,916.994,VALID,0,VALID,90.8787,VALID,0,VALID,20.4634,VALID,114,VALID,0.0976563,
2014-08-30, 01:55:05,VALID,916.97,VALID,0,VALID,90.9855,VALID,0,VALID,20.4845,VALID,124,VALID,1.59453,
2014-08-30, 01:56:05,VALID,916.974,VALID,0,VALID,90.8711,VALID,0,VALID,20.4829,VALID,122,VALID,0.321094,
2014-08-30, 01:57:05,VALID,916.964,VALID,0,VALID,90.9016,VALID,0,VALID,20.4634,VALID,131,VALID,0.878516,
2014-08-30, 01:58:05,VALID,916.957,VALID,0,VALID,90.8559,VALID,0,VALID,20.4829,VALID,123,VALID,0.755469,
2014-08-30, 01:59:05,VALID,916.956,VALID,0,VALID,90.8025,VALID,0,VALID,20.4829,VALID,138,VALID,0.0621094,
2014-08-30, 02:00:05,VALID,916.945,VALID,0,VALID,90.8406,VALID,0,VALID,20.4634,VALID,136,VALID,0.821094,
2014-08-30, 02:01:05,VALID,916.93,VALID,0,VALID,90.8559,VALID,0,VALID,20.465,VALID,139,VALID,0.154687,
2014-08-30, 02:02:05,VALID,916.964,VALID,0,VALID,90.8787,VALID,0,VALID,20.4244,VALID,139,VALID,0.71875,
2014-08-30, 02:03:05,VALID,916.961,VALID,0,VALID,90.9473,VALID,0,VALID,20.4259,VALID,148,VALID,0.122656,
2014-08-30, 02:04:05,VALID,916.961,VALID,0,VALID,91.077,VALID,0,VALID,20.3464,VALID,152,VALID,0.925391,
2014-08-30, 02:05:05,VALID,916.952,VALID,0,VALID,91.2904,VALID,0,VALID,20.3284,VALID,167,VALID,1.13789,
2014-08-30, 02:06:05,VALID,916.937,VALID,0,VALID,91.5267,VALID,0,VALID,20.2489,VALID,154,VALID,0.889063,
2014-08-30, 02:07:05,VALID,916.929,VALID,0,VALID,91.8164,VALID,0,VALID,20.2098,VALID,162,VALID,0.517187,
2014-08-30, 02:08:05,VALID,916.933,VALID,0,VALID,92.0223,VALID,0,VALID,20.1903,VALID,166,VALID,0.755469,
2014-08-30, 02:09:05,VALID,916.961,VALID,0,VALID,92.1442,VALID,0,VALID,20.1903,VALID,164,VALID,0.975391,
2014-08-30, 02:10:05,VALID,916.939,VALID,0,VALID,92.2586,VALID,0,VALID,20.1708,VALID,164,VALID,0.836719,
2014-08-30, 02:11:05,VALID,916.967,VALID,0,VALID,92.3729,VALID,0,VALID,20.1513,VALID,153,VALID,0.059375,
2014-08-30, 02:12:05,VALID,916.965,VALID,0,VALID,92.4644,VALID,0,VALID,20.1529,VALID,133,VALID,0.2,
2014-08-30, 02:13:05,VALID,916.99,VALID,0,VALID,92.5406,VALID,0,VALID,20.1513,VALID,143,VALID,0.935156,
2014-08-30, 02:14:05,VALID,916.967,VALID,0,VALID,92.6474,VALID,0,VALID,20.1724,VALID,151,VALID,0.977344,
2014-08-30, 02:15:05,VALID,916.966,VALID,0,VALID,92.594,VALID,0,VALID,20.1708,VALID,144,VALID,0.831641,
2014-08-30, 02:16:05,VALID,916.973,VALID,0,VALID,92.6245,VALID,0,VALID,20.1919,VALID,142,VALID,1.21406,
2014-08-30, 02:17:05,VALID,916.944,VALID,0,VALID,92.6245,VALID,0,VALID,20.1708,VALID,144,VALID,1.48555,
2014-08-30, 02:18:05,VALID,916.94,VALID,0,VALID,92.6245,VALID,0,VALID,20.1903,VALID,147,VALID,0.377734,
2014-08-30, 02:19:05,VALID,916.942,VALID,0,VALID,92.5635,VALID,0,VALID,20.2293,VALID,131,VALID,0.859375,
2014-08-30, 02:20:05,VALID,916.918,VALID,0,VALID,92.4187,VALID,0,VALID,20.2489,VALID,138,VALID,0.73125,
2014-08-30, 02:21:05,VALID,916.912,VALID,0,VALID,92.3272,VALID,0,VALID,20.2684,VALID,138,VALID,0.115625,
2014-08-30, 02:22:05,VALID,916.888,VALID,0,VALID,92.3348,VALID,0,VALID,20.2684,VALID,137,VALID,0.963672,
2014-08-30, 02:23:05,VALID,916.863,VALID,0,VALID,92.2586,VALID,0,VALID,20.2879,VALID,134,VALID,0.625781,
2014-08-30, 02:24:05,VALID,916.866,VALID,0,VALID,92.19,VALID,0.107441,VALID,20.3074,VALID,147,VALID,0.40625,
2014-08-30, 02:25:05,VALID,916.858,VALID,0,VALID,92.1137,VALID,0,VALID,20.3269,VALID,141,VALID,0.212109,
2014-08-30, 02:26:05,VALID,916.881,VALID,0,VALID,92.007,VALID,0,VALID,20.3479,VALID,130,VALID,0.0167969,
2014-08-30, 02:27:05,VALID,916.859,VALID,0,VALID,91.9613,VALID,0,VALID,20.3074,VALID,132,VALID,0,
2014-08-30, 02:28:05,VALID,916.879,VALID,0,VALID,92.0299,VALID,0,VALID,20.2879,VALID,138,VALID,0,
2014-08-30, 02:29:05,VALID,916.858,VALID,0,VALID,92.0832,VALID,0,VALID,20.3074,VALID,140,VALID,0,
2014-08-30, 02:30:05,VALID,916.864,VALID,0,VALID,92.1061,VALID,0,VALID,20.2684,VALID,148,VALID,0,
2014-08-30, 02:31:05,VALID,916.854,VALID,0,VALID,92.0832,VALID,0,VALID,20.2489,VALID,145,VALID,0,
2014-08-30, 02:32:05,VALID,916.823,VALID,0,VALID,92.2357,VALID,0,VALID,20.2489,VALID,137,VALID,0.0140625,
2014-08-30, 02:33:05,VALID,916.866,VALID,0,VALID,92.2967,VALID,0,VALID,20.2699,VALID,141,VALID,0,
2014-08-30, 02:34:05,VALID,916.878,VALID,0,VALID,92.3272,VALID,0,VALID,20.2098,VALID,139,VALID,0.00234375,
2014-08-30, 02:35:05,VALID,916.882,VALID,0,VALID,92.4644,VALID,0,VALID,20.1903,VALID,153,VALID,0,
2014-08-30, 02:36:05,VALID,916.912,VALID,0,VALID,92.5864,VALID,0,VALID,20.1708,VALID,146,VALID,0.214453,
2014-08-30, 02:37:05,VALID,916.92,VALID,0,VALID,92.6779,VALID,0,VALID,20.2114,VALID,148,VALID,1.08047,
2014-08-30, 02:38:05,VALID,916.955,VALID,0,VALID,92.6626,VALID,0,VALID,20.2114,VALID,141,VALID,0.994531,
2014-08-30, 02:39:05,VALID,916.954,VALID,0,VALID,92.6931,VALID,0,VALID,20.2293,VALID,153,VALID,1.35469,
2014-08-30, 02:40:05,VALID,916.927,VALID,0,VALID,92.5635,VALID,0,VALID,20.2489,VALID,143,VALID,1.27148,
2014-08-30, 02:41:05,VALID,916.918,VALID,0,VALID,92.472,VALID,0,VALID,20.2894,VALID,144,VALID,1.225,
2014-08-30, 02:42:05,VALID,916.91,VALID,0,VALID,92.3653,VALID,0,VALID,20.2879,VALID,149,VALID,1.04844,
2014-08-30, 02:43:05,VALID,916.887,VALID,0,VALID,92.2891,VALID,0,VALID,20.3074,VALID,150,VALID,0.762891,
2014-08-30, 02:44:05,VALID,916.891,VALID,0,VALID,92.2433,VALID,0,VALID,20.3074,VALID,160,VALID,1.1293,
2014-08-30, 02:45:05,VALID,916.903,VALID,0,VALID,92.1976,VALID,0,VALID,20.2879,VALID,161,VALID,0.588281,
2014-08-30, 02:46:05,VALID,916.882,VALID,0,VALID,92.2052,VALID,0,VALID,20.2489,VALID,165,VALID,0.825,
2014-08-30, 02:47:05,VALID,916.898,VALID,0,VALID,92.3424,VALID,0,VALID,20.2098,VALID,163,VALID,0.938281,
2014-08-30, 02:48:05,VALID,916.876,VALID,0,VALID,92.4568,VALID,0,VALID,20.1903,VALID,161,VALID,0.567578,
2014-08-30, 02:49:05,VALID,916.897,VALID,0,VALID,92.5864,VALID,0,VALID,20.1708,VALID,162,VALID,0.844531,
2014-08-30, 02:50:05,VALID,916.902,VALID,0,VALID,92.7312,VALID,0,VALID,20.1318,VALID,166,VALID,0.832031,
2014-08-30, 02:51:05,VALID,916.909,VALID,0,VALID,92.8761,VALID,0,VALID,20.1318,VALID,163,VALID,0.178125,
2014-08-30, 02:52:05,VALID,916.886,VALID,0,VALID,92.9904,VALID,0,VALID,20.1318,VALID,165,VALID,0.732422,
2014-08-30, 02:53:05,VALID,916.844,VALID,0,VALID,93.059,VALID,0,VALID,20.1318,VALID,160,VALID,0.0363281,
2014-08-30, 02:54:05,VALID,916.841,VALID,0,VALID,93.1353,VALID,0,VALID,20.1318,VALID,166,VALID,0.820703,
2014-08-30, 02:55:05,VALID,916.844,VALID,0,VALID,93.181,VALID,0,VALID,20.1318,VALID,165,VALID,1.12539,
2014-08-30, 02:56:05,VALID,916.828,VALID,0,VALID,93.1963,VALID,0,VALID,20.1334,VALID,173,VALID,0.635156,
2014-08-30, 02:57:05,VALID,916.859,VALID,0,VALID,93.242,VALID,0,VALID,20.1318,VALID,166,VALID,1.39336,
2014-08-30, 02:58:05,VALID,916.871,VALID,0,VALID,93.2191,VALID,0,VALID,20.1318,VALID,171,VALID,1.22656,
2014-08-30, 02:59:05,VALID,916.878,VALID,0,VALID,93.2115,VALID,0,VALID,20.1334,VALID,168,VALID,0.651563,
2014-08-30, 03:00:05,VALID,916.872,VALID,0,VALID,93.2572,VALID,0,VALID,20.1123,VALID,163,VALID,0.468359,
2014-08-30, 03:01:05,VALID,916.875,VALID,0,VALID,93.2725,VALID,0,VALID,20.1318,VALID,164,VALID,0.731641,
2014-08-30, 03:02:05,VALID,916.867,VALID,0,VALID,93.2572,VALID,0,VALID,20.1513,VALID,163,VALID,0.0921875,
2014-08-30, 03:03:05,VALID,916.859,VALID,0,VALID,93.2115,VALID,0,VALID,20.1513,VALID,150,VALID,0.642969,
2014-08-30, 03:04:05,VALID,916.837,VALID,0,VALID,93.2496,VALID,0,VALID,20.1529,VALID,153,VALID,0.748828,
2014-08-30, 03:05:05,VALID,916.833,VALID,0,VALID,93.2954,VALID,0,VALID,20.1318,VALID,156,VALID,0.819922,
2014-08-30, 03:06:05,VALID,916.847,VALID,0,VALID,93.2877,VALID,0,VALID,20.1318,VALID,166,VALID,0.522266,
2014-08-30, 03:07:05,VALID,916.857,VALID,0,VALID,93.303,VALID,0,VALID,20.1513,VALID,162,VALID,0.736719,
2014-08-30, 03:08:05,VALID,916.845,VALID,0,VALID,93.2801,VALID,0,VALID,20.1724,VALID,149,VALID,0.135937,
2014-08-30, 03:09:05,VALID,916.879,VALID,0,VALID,93.2725,VALID,0,VALID,20.1708,VALID,153,VALID,0.0183594,
2014-08-30, 06:57:04,INVALID - VALUE NOT AVAILABLE,0,INVALID - VALUE NOT AVAILABLE,0,INVALID - VALUE NOT AVAILABLE,0,INVALID - VALUE NOT AVAILABLE,0,INVALID - VALUE NOT AVAILABLE,0,INVALID,360,INVALID,0,
2014-08-30, 07:24:04,VALID,917.398,VALID,0,VALID,80.3965,VALID,97.5566,VALID,20.912,VALID,136,VALID,1.41992,
2014-08-30, 07:25:04,VALID,917.382,VALID,0,VALID,80.3508,VALID,100.78,VALID,20.9511,VALID,128,VALID,0.837891,
2014-08-30, 07:26:04,VALID,917.389,VALID,0,VALID,80.2212,VALID,104.11,VALID,21.0291,VALID,132,VALID,1.44492,
2014-08-30, 07:27:04,VALID,917.378,VALID,0,VALID,79.0624,VALID,107.441,VALID,21.0665,VALID,133,VALID,1.44805,
2014-08-30, 07:28:04,VALID,917.423,VALID,0,VALID,79.5885,VALID,110.772,VALID,21.1055,VALID,133,VALID,1.38203,
2014-08-30, 07:29:04,VALID,917.427,VALID,0,VALID,78.6889,VALID,114.532,VALID,21.1673,VALID,127,VALID,1.34805,
2014-08-30, 07:30:04,VALID,917.417,VALID,0,VALID,79.5961,VALID,118.508,VALID,21.1852,VALID,139,VALID,0.761328,
2014-08-30, 07:31:04,VALID,917.419,VALID,0,VALID,80.2669,VALID,123.02,VALID,21.1852,VALID,115,VALID,0.539063,
2014-08-30, 07:32:04,VALID,917.419,VALID,0,VALID,79.1539,VALID,128.285,VALID,21.2047,VALID,113,VALID,1.25977,
2014-08-30, 07:33:04,VALID,917.394,VALID,0,VALID,79.314,VALID,152.996,VALID,21.2226,VALID,148,VALID,1.29023,
2014-08-30, 07:34:04,VALID,917.414,VALID,0,VALID,79.314,VALID,153.426,VALID,21.3022,VALID,137,VALID,0.110547,
2014-08-30, 07:35:04,VALID,917.398,VALID,0,VALID,79.6342,VALID,146.013,VALID,21.3201,VALID,123,VALID,0.243359,
2014-08-30, 07:36:04,VALID,917.385,VALID,0,VALID,78.8871,VALID,156.112,VALID,21.3591,VALID,128,VALID,0.858203,
2014-08-30, 07:37:04,VALID,917.383,VALID,0,VALID,78.7499,VALID,166.534,VALID,21.4388,VALID,115,VALID,0.0667969,
2014-08-30, 07:38:04,VALID,917.385,VALID,0,VALID,78.5517,VALID,175.451,VALID,21.4957,VALID,125,VALID,0.00351562,
2014-08-30, 07:39:04,VALID,917.419,VALID,0,VALID,78.8566,VALID,191.03,VALID,21.577,VALID,118,VALID,0,
2014-08-30, 07:40:04,VALID,917.416,VALID,0,VALID,77.9875,VALID,195.973,VALID,21.6551,VALID,145,VALID,0,
2014-08-30, 07:41:04,VALID,917.422,VALID,0,VALID,77.0575,VALID,188.774,VALID,21.712,VALID,158,VALID,0.301562,
2014-08-30, 07:42:04,VALID,917.423,VALID,0,VALID,78.3001,VALID,259.9,VALID,21.7883,VALID,162,VALID,0.0304688,
2014-08-30, 07:43:04,VALID,917.417,VALID,0,VALID,77.1413,VALID,222.94,VALID,21.8062,VALID,138,VALID,0.892969,
2014-08-30, 07:44:04,VALID,917.398,VALID,0,VALID,77.6597,VALID,184.369,VALID,21.8842,VALID,159,VALID,0.0433594,
2014-08-30, 07:45:04,VALID,917.413,VALID,0,VALID,76.1351,VALID,182.435,VALID,21.9054,VALID,154,VALID,0.2375,
2014-08-30, 07:46:04,VALID,917.395,VALID,0,VALID,76.4934,VALID,185.981,VALID,21.9444,VALID,139,VALID,0.949219,
2014-08-30, 07:47:04,VALID,917.435,VALID,0,VALID,77.9799,VALID,237.767,VALID,21.9835,VALID,139,VALID,0.000390625,
2014-08-30, 07:48:04,VALID,917.423,VALID,0,VALID,75.8377,VALID,209.08,VALID,21.9835,VALID,160,VALID,1.20156,
2014-08-30, 07:49:04,VALID,917.417,VALID,0,VALID,76.8059,VALID,194.576,VALID,22.003,VALID,127,VALID,0.981641,
2014-08-30, 07:50:04,VALID,917.434,VALID,0,VALID,77.0727,VALID,167.286,VALID,22.0225,VALID,118,VALID,0.294922,
2014-08-30, 07:51:04,VALID,917.449,VALID,0,VALID,75.4718,VALID,172.658,VALID,22.0225,VALID,153,VALID,1.81289,
2014-08-30, 07:52:04,VALID,917.473,VALID,0,VALID,76.0969,VALID,229.172,VALID,21.9623,VALID,158,VALID,1.18672,
2014-08-30, 07:53:04,VALID,917.436,VALID,0,VALID,75.2431,VALID,291.595,VALID,21.9835,VALID,145,VALID,0.320703,
2014-08-30, 07:54:04,VALID,917.47,VALID,0,VALID,76.5848,VALID,259.363,VALID,22.0632,VALID,140,VALID,0.930859,
2014-08-30, 07:55:04,VALID,917.441,VALID,0,VALID,76.5315,VALID,274.62,VALID,22.1608,VALID,139,VALID,0.453125,